Content
SEND FEEDBACK

Daily
Averages
Monthly
Summary
United Kingdom

LONDON, ENGLAND


Home > Europe > United Kingdom > England
Elevation: 203 feet     Latitude: 51 09N     Longitude: 000 11W

WEATHER
 
SELECT A DAY
Number of Records: 293,019;   Date Range: 7/1/96 - 7/31/14
 
SHARE

PRINT THIS DATA

[ ← Previous Day ]
WEATHER ALMANAC - APRIL 24, 2013
[ Next Day → ]
[ °C ]   °F
Weather ElementAverageHighLow
Temperature52.8 °F60.8 °F (1:50 pm)44.6 °F (5:50 am)
Dewpoint48.2 °F51.8 °F (3:50 pm)42.8 °F (5:50 am)
Humidity84.8 %100 % (6:50 am)68 % (1:50 pm)
Barometer30.24 in30.27 in (10:20 am)30.21 in (1:20 am)
Wind Speed5.8 mph11.5 mph (2:20 pm)
Weather ElementAverage
Visibility4.7 mi
Wind DirectionS (184 °)

Weather ElementTotal
Precipitation---
Heating Degree Days12.3 (Base 65)
Growing Degree Days2.7 (Base 50)
Averaged from 47 records on April 24, 2013
WEATHER CONDITIONS BREAKOUT
WIND DIRECTION BREAKOUT
WEATHER BY HOUR - APRIL 24, 2013
[ °C ]   °F
Local TimeTemperatureDewpointHumidityBarometerVisibilityWind DirectionWind SpeedGust SpeedPrecipitationEventsConditions
12:50 AM50.0 °F46.4 °F87 %30.24 inVariable3.5 mphClear
1:20 AM50.0 °F46.4 °F87 %30.21 inSouth (180°)3.5 mphClear
1:50 AM48.2 °F44.6 °F87 %30.21 inWest (260°)3.5 mphClear
2:20 AM50.0 °F46.4 °F87 %30.21 inSW (220°)3.5 mphClear
2:50 AM48.2 °F46.4 °F93 %30.21 inSSW (200°)2.3 mphClear
3:20 AM46.4 °F44.6 °F93 %30.21 inSouth (180°)4.6 mphClear
3:50 AM46.4 °F44.6 °F93 %30.21 in5.6 miWSW (240°)4.6 mph
4:20 AM48.2 °F44.6 °F87 %30.21 in5.0 miSSW (210°)3.5 mph
4:50 AM46.4 °F44.6 °F93 %30.21 in5.0 miWSW (240°)3.5 mph
5:20 AM46.4 °F44.6 °F93 %30.21 in4.3 miSW (230°)3.5 mph
5:50 AM44.6 °F42.8 °F93 %30.21 in4.3 miVariable2.3 mph
6:20 AM44.6 °F42.8 °F93 %30.21 in3.7 miCalm
6:50 AM44.6 °F44.6 °F100 %30.21 in3.7 miSW (230°)4.6 mph
7:20 AM48.2 °F44.6 °F87 %30.24 in4.3 miSW (220°)5.8 mphScattered Clouds
7:50 AM46.4 °F46.4 °F100 %30.24 in1.6 miSSW (210°)5.8 mphHaze
8:20 AM48.2 °F46.4 °F93 %30.24 in1.7 miSSW (210°)6.9 mphHaze
8:50 AM48.2 °F46.4 °F93 %30.24 in3.7 miSSW (200°)6.9 mphMostly Cloudy
9:20 AM48.2 °F46.4 °F93 %30.24 in3.7 miSSW (200°)6.9 mphMostly Cloudy
9:50 AM50.0 °F48.2 °F94 %30.24 in5.0 miSSW (210°)5.8 mphOvercast
10:20 AM50.0 °F48.2 °F94 %30.27 in5.0 miSSW (200°)6.9 mphMostly Cloudy
10:50 AM51.8 °F48.2 °F88 %30.27 in4.3 miSW (220°)6.9 mphMostly Cloudy
11:20 AM53.6 °F50.0 °F88 %30.27 in6.2 miSSW (210°)6.9 mphMostly Cloudy
11:50 AM55.4 °F50.0 °F82 %30.27 in6.2 miSW (220°)9.2 mphMostly Cloudy
12:20 PM57.2 °F50.0 °F77 %30.24 in6.2 miWSW (240°)10.4 mphScattered Clouds
12:50 PM57.2 °F50.0 °F77 %30.24 in6.2 miSSW (210°)9.2 mphScattered Clouds
1:20 PM59.0 °F50.0 °F72 %30.24 inSW (220°)10.4 mphClear
1:50 PM60.8 °F50.0 °F68 %30.24 in6.2 miSSW (210°)10.4 mphPartly Cloudy
2:20 PM60.8 °F50.0 °F68 %30.24 inSW (230°)11.5 mphClear
2:50 PM60.8 °F50.0 °F68 %30.24 inSW (230°)10.4 mphClear
3:20 PM60.8 °F50.0 °F68 %30.24 inSW (220°)9.2 mphClear
3:50 PM60.8 °F51.8 °F72 %30.24 inSW (230°)8.1 mphClear
4:20 PM60.8 °F51.8 °F72 %30.24 inSW (220°)8.1 mphClear
4:50 PM59.0 °F51.8 °F77 %30.24 inSSW (210°)8.1 mphClear
5:20 PM59.0 °F50.0 °F72 %30.24 inSSW (210°)8.1 mphClear
5:50 PM59.0 °F51.8 °F77 %30.24 inSW (220°)8.1 mphClear
6:20 PM57.2 °F50.0 °F77 %30.24 inSSW (210°)8.1 mphClear
6:50 PM55.4 °F50.0 °F82 %30.24 inSW (220°)6.9 mphClear
7:20 PM55.4 °F50.0 °F82 %30.27 inSW (220°)6.9 mphClear
7:50 PM55.4 °F50.0 °F82 %30.27 inSSW (210°)5.8 mphClear
8:20 PM55.4 °F50.0 °F82 %30.27 inSSW (200°)4.6 mphClear
8:50 PM53.6 °F50.0 °F88 %30.27 in5.6 miSSW (210°)4.6 mph
9:20 PM53.6 °F50.0 °F88 %30.27 in5.6 miVariable3.5 mph
9:50 PM53.6 °F50.0 °F88 %30.27 in5.0 miSW (230°)3.5 mph
10:20 PM53.6 °F50.0 °F88 %30.27 in5.0 miCalmRainLight Rain
10:50 PM53.6 °F50.0 °F88 %30.27 in5.0 miVariable2.3 mph
11:20 PM53.6 °F50.0 °F88 %30.27 in4.3 miVariable2.3 mph
11:50 PM53.6 °F50.0 °F88 %30.27 in3.7 miSSW (210°)3.5 mphRainLight Rain
Hourly data recorded from EGKK, located miles away from London, England







STORIES FROM OUR PARTNERS